Location: *
(28.3744°N, 81.5492°W)
Time: 03:00:11
(UTC+00:00)

CSL-04 Rocket - Pass Details

Date: 15 June 2025
Orbit: 805 x 857 km, 98.7° (Epoch: 11 July)

Event Time Altitude Azimuth Distance (km) Brightness Sun altitude
Exits shadow 01:23:56 10° 160° (SSE) 2,404 5.6 -12.0°
Reaches altitude 10° 01:24:00 10° 160° (SSE) 2,380 5.6 -12.0°
Maximum altitude 01:29:14 75° 76° (ENE) 836 3.6 -12.9°
Drops below altitude 10° 01:34:29 10° 352° (N) 2,388 6.7 -13.9°
Sets 01:36:50 0° 350° (N) 3,324 7.6 -14.3°
